Flag for United Kingdom Weather past 2 weeks in Haywards Heath, England, United Kingdom

Now
61 °F

Partly sunny.


Feels Like: 61 °F
Forecast: 58 / 81 °F
Wind: 2 mph from North

Location: London / Gatwick Airport

Current Time: Jul 2, 2015 at 6:25:40 AM

Latest Report: Jul 2, 2015 at 5:50 AM


Visibility: 3 mi

Pressure: 30.04 "Hg

Humidity: 94%

Dew point: 59 °F

Location of Haywards HeathLocation

Historic Weather in Haywards Heath — Graph

°F

Haywards Heath temperature yesterday

Maximum temperature yesterday: 91 °F (at 4:20 PM)
Minimum temperature yesterday: 66 °F (at 12:20 AM)
Average temperature yesterday: 79 °F

Past Weeks' High & Low Weather Summary

 TemperatureHumidityPressure
High91 °F (Jul 1, 4:20 PM)100% (Jun 20, 10:20 PM)30.27 "Hg (Jun 20, 10:20 PM)
Low46 °F (Jun 19, 5:20 AM)32% (Jun 30, 5:20 PM)29.77 "Hg (Jun 22, 3:20 PM)
Average63 °F70%30.08 "Hg
* Reported Jun 17 5:20 AM — Jul 2 5:20 AM, Haywards Heath, Weather by CustomWeather, © 2015

Note: Actual official high and low records may vary slightly from our data, if they occured in-between our weather recording intervals... More about our weather records

Advertising

Haywards Heath weather history for previous 24 hours

 ConditionsComfort  
Time TempWeatherWind HumidityBarometerVisibility
5:20 AM
Thu, Jul 2
61 °FPassing clouds.6 mph94%30.04 "Hg3 mi
4:50 AM59 °FFog.7 mph100%30.01 "Hg2 mi
4:20 AM59 °FFog.6 mph100%30.01 "Hg2 mi
3:50 AM59 °FClear.6 mph94%30.01 "Hg4 mi
3:20 AM59 °FClear.5 mph94%29.98 "Hg4 mi
2:50 AM61 °FClear.3 mph94%29.98 "Hg5 mi
2:20 AM61 °FClear.5 mph94%29.98 "Hg10 mi
1:50 AM63 °FClear.5 mph88%29.98 "Hg10 mi
1:20 AM64 °FClear.8 mph83%29.98 "Hg10 mi
12:50 AM64 °FPassing clouds.5 mph88%29.98 "HgN/A
12:20 AM66 °FPassing clouds.5 mph83%29.95 "HgN/A
11:50 PM
Wed, Jul 1
68 °FClear.7 mph83%29.95 "Hg10 mi
10:50 PM72 °FPassing clouds.7 mph73%29.95 "HgN/A
10:20 PM73 °FPassing clouds.6 mph69%29.92 "HgN/A
9:50 PM75 °FSunny.8 mph65%29.92 "Hg10 mi
9:20 PM77 °FSunny.9 mph61%29.92 "Hg10 mi
8:50 PM79 °FSunny.7 mph58%29.89 "Hg10 mi
8:20 PM82 °FSunny.8 mph48%29.89 "Hg10 mi
7:50 PM84 °FSunny.5 mph48%29.86 "Hg10 mi
7:20 PM84 °FSunny.7 mph45%29.86 "Hg10 mi
6:50 PM88 °FPassing clouds.8 mph43%29.86 "HgN/A
6:20 PM90 °FPassing clouds.7 mph41%29.83 "HgN/A
5:50 PM90 °FPassing clouds.8 mph41%29.83 "HgN/A
5:20 PM90 °FPassing clouds.8 mph38%29.83 "HgN/A
4:50 PM90 °FSunny.13 mph38%29.83 "Hg10 mi
4:20 PM91 °FSunny.12 mph41%29.83 "Hg10 mi
3:50 PM90 °FPassing clouds.9 mph41%29.86 "HgN/A
3:20 PM86 °FPassing clouds.9 mph46%29.86 "HgN/A
2:50 PM88 °FSunny.9 mph43%29.86 "Hg10 mi
2:20 PM88 °FPassing clouds.8 mph43%29.86 "HgN/A
1:50 PM88 °FPassing clouds.8 mph43%29.86 "HgN/A
1:20 PM86 °FSunny.12 mph46%29.89 "Hg10 mi
12:50 PM84 °FPassing clouds.9 mph48%29.89 "HgN/A
12:20 PM84 °FPassing clouds.7 mph48%29.86 "HgN/A
11:50 AM82 °FPassing clouds.7 mph51%29.89 "HgN/A
11:20 AM82 °FPassing clouds.8 mph48%29.89 "HgN/A
10:50 AM84 °FPassing clouds.9 mph45%29.89 "HgN/A
10:20 AM84 °FPassing clouds.9 mph45%29.89 "HgN/A
9:50 AM84 °FPassing clouds.8 mph45%29.89 "HgN/A
9:20 AM82 °FPassing clouds.6 mph48%29.89 "HgN/A
8:50 AM79 °FSunny.7 mph54%29.89 "Hg10 mi
8:20 AM77 °FSunny.7 mph54%29.89 "Hg10 mi
7:50 AM75 °FSunny.8 mph57%29.92 "Hg10 mi
7:20 AM75 °FSunny.7 mph54%29.92 "Hg10 mi
6:50 AM73 °FSunny.6 mph53%29.92 "Hg10 mi
6:20 AM73 °FSunny.6 mph53%29.92 "Hg10 mi
Weather by CustomWeather, © 2015

See weather overviewHow to use our weather pages